KLM1054 EHAM-EGLL

Flight info

Callsign KLM1054
Flight time 0h 44m
Altitude 24000
Route IDRID L980 LOGAN
Aircraft A333/H-SDE3GHIJ2J3J5M1RVWXY/LB2D1

Departure

Time 2026-05-04 20:36
Airport Amsterdam Airport Schiphol (EHAM)

Arrival

Time 2026-05-04 21:20
Airport London Heathrow Airport (EGLL)
Time Latitude Longitude Altitude Speed Heading
2026-05-04 19:45 52.31004 4.77119 1 ft 0 kts 182°
2026-05-04 20:18 52.31012 4.77120 1 ft 4 kts 177°
2026-05-04 20:19 52.31038 4.77112 1 ft 4 kts 153°
2026-05-04 20:19 52.31060 4.77087 3 ft 4 kts 132°
2026-05-04 20:19 52.31075 4.77052 3 ft 4 kts 115°
2026-05-04 20:19 52.31085 4.77011 4 ft 4 kts 100°
2026-05-04 20:20 52.31087 4.76987 4 ft 1 kts 91°
2026-05-04 20:22 52.31087 4.76988 4 ft 1 kts 91°
2026-05-04 20:23 52.31086 4.77008 4 ft 3 kts 92°
2026-05-04 20:23 52.31085 4.77054 3 ft 5 kts 93°
2026-05-04 20:23 52.31083 4.77126 2 ft 7 kts 93°
2026-05-04 20:23 52.31080 4.77223 1 ft 10 kts 92°
2026-05-04 20:24 52.31077 4.77344 1 ft 12 kts 92°
2026-05-04 20:24 52.31099 4.77471 1 ft 12 kts 42°
2026-05-04 20:24 52.31184 4.77499 1 ft 13 kts
2026-05-04 20:24 52.31283 4.77486 1 ft 15 kts 342°
2026-05-04 20:25 52.31365 4.77375 1 ft 16 kts 311°
2026-05-04 20:25 52.31443 4.77231 1 ft 17 kts 310°
2026-05-04 20:25 52.31484 4.77053 1 ft 17 kts 272°
2026-05-04 20:25 52.31478 4.76851 1 ft 18 kts 267°
2026-05-04 20:26 52.31470 4.76635 1 ft 20 kts 266°
2026-05-04 20:26 52.31461 4.76406 1 ft 21 kts 266°
2026-05-04 20:26 52.31454 4.76174 1 ft 20 kts 266°
2026-05-04 20:26 52.31446 4.75936 1 ft 21 kts 266°
2026-05-04 20:27 52.31438 4.75696 1 ft 22 kts 266°
2026-05-04 20:27 52.31428 4.75451 1 ft 20 kts 265°
2026-05-04 20:27 52.31418 4.75232 1 ft 19 kts 267°
2026-05-04 20:27 52.31413 4.75005 1 ft 21 kts 268°
2026-05-04 20:28 52.31405 4.74772 1 ft 20 kts 266°
2026-05-04 20:28 52.31397 4.74534 1 ft 21 kts 267°
2026-05-04 20:28 52.31371 4.74310 1 ft 19 kts 225°
2026-05-04 20:28 52.31244 4.74265 1 ft 19 kts 183°
2026-05-04 20:29 52.31105 4.74253 1 ft 21 kts 183°
2026-05-04 20:29 52.30959 4.74240 1 ft 22 kts 183°
2026-05-04 20:29 52.30809 4.74227 1 ft 21 kts 183°
2026-05-04 20:29 52.30663 4.74213 1 ft 21 kts 183°
2026-05-04 20:30 52.30522 4.74200 1 ft 21 kts 183°
2026-05-04 20:30 52.30388 4.74180 1 ft 16 kts 197°
2026-05-04 20:30 52.30318 4.74057 1 ft 15 kts 233°
2026-05-04 20:30 52.30239 4.73941 1 ft 14 kts 219°
2026-05-04 20:31 52.30227 4.73924 1 ft 0 kts 221°
2026-05-04 20:33 52.30218 4.73910 1 ft 4 kts 223°
2026-05-04 20:33 52.30192 4.73853 0 ft 7 kts 246°
2026-05-04 20:33 52.30197 4.73777 1 ft 7 kts 298°
2026-05-04 20:33 52.30251 4.73740 -2 ft 10 kts 357°
2026-05-04 20:34 52.30289 4.73741 -4 ft 0 kts
2026-05-04 20:35 52.30372 4.73748 -3 ft 33 kts
2026-05-04 20:35 52.30790 4.73785 4 ft 98 kts
2026-05-04 20:36 52.31742 4.73873 96 ft 168 kts
2026-05-04 20:36 52.33010 4.74042 744 ft 196 kts
2026-05-04 20:36 52.34462 4.74219 1637 ft 222 kts
2026-05-04 20:36 52.36061 4.74470 2556 ft 240 kts
2026-05-04 20:37 52.37713 4.74791 3429 ft 241 kts
2026-05-04 20:37 52.39413 4.75126 4212 ft 251 kts
2026-05-04 20:37 52.41198 4.75285 4936 ft 262 kts 351°
2026-05-04 20:37 52.42856 4.74129 5785 ft 262 kts 316°
2026-05-04 20:38 52.43806 4.71657 6769 ft 258 kts 283°
2026-05-04 20:38 52.43817 4.68737 7737 ft 260 kts 256°
2026-05-04 20:38 52.43192 4.65943 8710 ft 264 kts 244°
2026-05-04 20:38 52.42298 4.63289 9705 ft 268 kts 238°
2026-05-04 20:39 52.41274 4.60690 10438 ft 280 kts 236°
2026-05-04 20:39 52.40152 4.57949 10829 ft 303 kts 236°
2026-05-04 20:39 52.38952 4.54966 11237 ft 323 kts 237°
2026-05-04 20:39 52.37722 4.51799 11886 ft 333 kts 238°
2026-05-04 20:40 52.36500 4.48559 12696 ft 338 kts 238°
2026-05-04 20:40 52.35275 4.45246 13516 ft 342 kts 238°
2026-05-04 20:40 52.34048 4.41896 14253 ft 345 kts 239°
2026-05-04 20:40 52.32814 4.38514 15015 ft 348 kts 238°
2026-05-04 20:41 52.31564 4.35094 15795 ft 350 kts 238°
2026-05-04 20:41 52.30326 4.31713 16513 ft 353 kts 238°
2026-05-04 20:41 52.29061 4.28267 17241 ft 356 kts 238°
2026-05-04 20:41 52.27779 4.24786 17948 ft 359 kts 238°
2026-05-04 20:42 52.26485 4.21278 18587 ft 362 kts 238°
2026-05-04 20:42 52.25172 4.17726 19181 ft 365 kts 238°
2026-05-04 20:42 52.23852 4.14161 19777 ft 368 kts 238°
2026-05-04 20:42 52.22523 4.10575 20356 ft 371 kts 238°
2026-05-04 20:43 52.21179 4.06957 20922 ft 374 kts 238°
2026-05-04 20:43 52.19827 4.03319 21521 ft 376 kts 238°
2026-05-04 20:43 52.18466 3.99664 22100 ft 378 kts 238°
2026-05-04 20:43 52.17095 3.95987 22678 ft 381 kts 237°
2026-05-04 20:44 52.15711 3.92281 23223 ft 384 kts 238°
2026-05-04 20:44 52.14330 3.88590 23628 ft 389 kts 238°
2026-05-04 20:44 52.12913 3.84807 23881 ft 391 kts 238°
2026-05-04 20:44 52.11498 3.81035 23940 ft 390 kts 238°
2026-05-04 20:45 52.10081 3.77262 23939 ft 390 kts 238°
2026-05-04 20:45 52.08664 3.73498 23938 ft 390 kts 238°
2026-05-04 20:45 52.07249 3.69742 23935 ft 390 kts 238°
2026-05-04 20:45 52.05828 3.65977 23936 ft 390 kts 238°
2026-05-04 20:46 52.04408 3.62217 23936 ft 390 kts 238°
2026-05-04 20:46 52.02982 3.58449 23933 ft 390 kts 238°
2026-05-04 20:46 52.01560 3.54698 23936 ft 390 kts 237°
2026-05-04 20:46 52.00145 3.50973 23936 ft 390 kts 237°
2026-05-04 20:47 51.98651 3.47286 23930 ft 390 kts 234°
2026-05-04 20:47 51.97080 3.43698 23935 ft 389 kts 233°
2026-05-04 20:47 51.95474 3.40170 23941 ft 389 kts 233°
2026-05-04 20:47 51.93850 3.36652 23933 ft 390 kts 233°
2026-05-04 20:48 51.92243 3.33177 23931 ft 390 kts 233°
2026-05-04 20:48 51.90614 3.29649 23936 ft 390 kts 233°
2026-05-04 20:48 51.88993 3.26120 23938 ft 391 kts 233°
2026-05-04 20:48 51.87415 3.22516 23938 ft 391 kts 237°
2026-05-04 20:49 51.86091 3.18682 23939 ft 391 kts 244°
2026-05-04 20:49 51.85101 3.14572 23934 ft 393 kts 251°
2026-05-04 20:49 51.84499 3.10305 23933 ft 395 kts 258°
2026-05-04 20:49 51.84098 3.05888 23933 ft 396 kts 261°
2026-05-04 20:50 51.83789 3.01462 23933 ft 397 kts 262°
2026-05-04 20:50 51.83520 2.97012 23933 ft 397 kts 262°
2026-05-04 20:50 51.83261 2.92562 23936 ft 397 kts 262°
2026-05-04 20:50 51.82996 2.88118 23941 ft 398 kts 262°
2026-05-04 20:51 51.82720 2.83650 23940 ft 398 kts 262°
2026-05-04 20:51 51.82433 2.79198 23940 ft 398 kts 262°
2026-05-04 20:51 51.82138 2.74753 23942 ft 398 kts 262°
2026-05-04 20:51 51.81837 2.70302 23943 ft 398 kts 262°
2026-05-04 20:52 51.81534 2.65858 23930 ft 398 kts 262°
2026-05-04 20:52 51.81227 2.61416 23942 ft 398 kts 262°
2026-05-04 20:52 51.80923 2.57029 23941 ft 398 kts 262°
2026-05-04 20:52 51.80614 2.52596 23940 ft 398 kts 261°
2026-05-04 20:53 51.80302 2.48149 23930 ft 398 kts 261°
2026-05-04 20:53 51.79989 2.43701 23924 ft 398 kts 261°
2026-05-04 20:53 51.79675 2.39256 23932 ft 398 kts 261°
2026-05-04 20:53 51.79359 2.34811 23943 ft 399 kts 261°
2026-05-04 20:54 51.79048 2.30453 23933 ft 399 kts 261°
2026-05-04 20:54 51.78860 2.27829 23933 ft 399 kts 261°
2026-05-04 20:54 51.78535 2.23281 23943 ft 398 kts 261°
2026-05-04 20:54 51.78171 2.17384 23930 ft 398 kts 262°
2026-05-04 20:55 51.77910 2.12924 23912 ft 398 kts 262°
2026-05-04 20:55 51.77737 2.09972 23797 ft 398 kts 262°
2026-05-04 20:55 51.77476 2.05534 23570 ft 396 kts 262°
2026-05-04 20:55 51.77214 2.01114 23286 ft 396 kts 262°
2026-05-04 20:56 51.76950 1.96691 23021 ft 395 kts 262°
2026-05-04 20:56 51.76685 1.92290 22763 ft 393 kts 262°
2026-05-04 20:56 51.76419 1.87900 22492 ft 392 kts 262°
2026-05-04 20:56 51.76151 1.83523 22221 ft 391 kts 262°
2026-05-04 20:57 51.75883 1.79157 21955 ft 390 kts 262°
2026-05-04 20:57 51.75614 1.74799 21686 ft 389 kts 262°
2026-05-04 20:57 51.75347 1.70506 21419 ft 388 kts 262°
2026-05-04 20:57 51.75077 1.66185 21164 ft 387 kts 262°
2026-05-04 20:58 51.74805 1.61871 20898 ft 386 kts 262°
2026-05-04 20:58 51.74533 1.57572 20650 ft 385 kts 262°
2026-05-04 20:58 51.74260 1.53281 20396 ft 384 kts 262°
2026-05-04 20:58 51.73988 1.49042 20140 ft 383 kts 262°
2026-05-04 20:59 51.73713 1.44777 19897 ft 382 kts 262°
2026-05-04 20:59 51.73437 1.40522 19646 ft 381 kts 262°
2026-05-04 20:59 51.73161 1.36272 19404 ft 380 kts 262°
2026-05-04 20:59 51.72883 1.32034 19164 ft 379 kts 262°
2026-05-04 21:00 51.72604 1.27809 18922 ft 378 kts 262°
2026-05-04 21:00 51.72325 1.23592 18682 ft 377 kts 262°
2026-05-04 21:00 51.72045 1.19386 18446 ft 377 kts 262°
2026-05-04 21:00 51.71765 1.15202 18193 ft 371 kts 263°
2026-05-04 21:01 51.71489 1.11105 17770 ft 364 kts 262°
2026-05-04 21:01 51.71220 1.07125 17303 ft 359 kts 262°
2026-05-04 21:01 51.70950 1.03148 16844 ft 354 kts 262°
2026-05-04 21:01 51.70682 0.99225 16382 ft 350 kts 262°
2026-05-04 21:02 51.70413 0.95317 16051 ft 353 kts 262°
2026-05-04 21:02 51.70136 0.91326 15575 ft 362 kts 262°
2026-05-04 21:02 51.69856 0.87301 15046 ft 361 kts 262°
2026-05-04 21:02 51.69577 0.83291 14606 ft 357 kts 262°
2026-05-04 21:03 51.69299 0.79323 14161 ft 355 kts 262°
2026-05-04 21:03 51.69021 0.75377 13696 ft 353 kts 262°
2026-05-04 21:03 51.68742 0.71439 13222 ft 351 kts 262°
2026-05-04 21:03 51.68465 0.67544 12794 ft 349 kts 262°
2026-05-04 21:04 51.68187 0.63660 12367 ft 348 kts 262°
2026-05-04 21:04 51.67912 0.59842 11937 ft 346 kts 262°
2026-05-04 21:04 51.67634 0.56005 11496 ft 344 kts 262°
2026-05-04 21:04 51.67361 0.52231 11222 ft 333 kts 262°
2026-05-04 21:05 51.67100 0.48629 10907 ft 322 kts 262°
2026-05-04 21:05 51.66841 0.45086 10537 ft 315 kts 262°
2026-05-04 21:05 51.66586 0.41611 10144 ft 310 kts 262°
2026-05-04 21:05 51.66333 0.38187 9748 ft 305 kts 262°
2026-05-04 21:06 51.66083 0.34817 9331 ft 300 kts 262°
2026-05-04 21:06 51.65841 0.31551 8928 ft 295 kts 262°
2026-05-04 21:06 51.65598 0.28301 8550 ft 287 kts 262°
2026-05-04 21:06 51.65367 0.25203 8199 ft 270 kts 262°
2026-05-04 21:07 51.65149 0.22296 7871 ft 254 kts 262°
2026-05-04 21:07 51.64943 0.19554 7557 ft 241 kts 261°
2026-05-04 21:07 51.64741 0.16898 7248 ft 238 kts 261°
2026-05-04 21:07 51.64436 0.14305 6977 ft 236 kts 254°
2026-05-04 21:08 51.63997 0.11766 6787 ft 234 kts 252°
2026-05-04 21:08 51.63533 0.09252 6654 ft 233 kts 252°
2026-05-04 21:08 51.63067 0.06747 6522 ft 233 kts 252°
2026-05-04 21:08 51.62604 0.04254 6393 ft 232 kts 252°
2026-05-04 21:09 51.62142 0.01763 6251 ft 231 kts 252°
2026-05-04 21:09 51.61682 -0.00716 6143 ft 231 kts 252°
2026-05-04 21:09 51.61222 -0.03196 6017 ft 232 kts 252°
2026-05-04 21:09 51.60760 -0.05690 5867 ft 232 kts 252°
2026-05-04 21:10 51.60304 -0.08147 5747 ft 232 kts 252°
2026-05-04 21:10 51.59842 -0.10633 5612 ft 232 kts 252°
2026-05-04 21:10 51.59381 -0.13113 5481 ft 231 kts 252°
2026-05-04 21:10 51.58919 -0.15590 5355 ft 231 kts 252°
2026-05-04 21:11 51.58458 -0.18059 5217 ft 231 kts 252°
2026-05-04 21:11 51.57997 -0.20528 5093 ft 230 kts 252°
2026-05-04 21:11 51.57536 -0.22989 4938 ft 230 kts 252°
2026-05-04 21:11 51.57076 -0.25445 4802 ft 229 kts 252°
2026-05-04 21:12 51.56617 -0.27890 4674 ft 228 kts 252°
2026-05-04 21:12 51.56158 -0.30334 4541 ft 228 kts 252°
2026-05-04 21:12 51.55700 -0.32773 4402 ft 228 kts 252°
2026-05-04 21:12 51.55241 -0.35210 4288 ft 228 kts 252°
2026-05-04 21:13 51.54788 -0.37611 4154 ft 227 kts 252°
2026-05-04 21:13 51.54328 -0.40047 4018 ft 227 kts 252°
2026-05-04 21:13 51.53869 -0.42478 3891 ft 227 kts 252°
2026-05-04 21:13 51.53409 -0.44904 3770 ft 227 kts 252°
2026-05-04 21:14 51.52950 -0.47326 3623 ft 226 kts 252°
2026-05-04 21:14 51.52491 -0.49747 3514 ft 226 kts 252°
2026-05-04 21:14 51.52033 -0.52156 3381 ft 226 kts 252°
2026-05-04 21:14 51.51593 -0.54573 3254 ft 225 kts 256°
2026-05-04 21:15 51.51407 -0.57078 3155 ft 226 kts 268°
2026-05-04 21:15 51.51424 -0.59596 3052 ft 226 kts 271°
2026-05-04 21:15 51.51463 -0.62079 2952 ft 225 kts 271°
2026-05-04 21:15 51.51502 -0.64596 2823 ft 225 kts 271°
2026-05-04 21:16 51.51363 -0.67074 2697 ft 223 kts 250°
2026-05-04 21:16 51.50484 -0.69079 2557 ft 222 kts 218°
2026-05-04 21:16 51.49122 -0.70204 2445 ft 225 kts 201°
2026-05-04 21:16 51.47528 -0.70783 2334 ft 245 kts 180°
2026-05-04 21:17 51.45870 -0.70092 2189 ft 252 kts 151°
2026-05-04 21:17 51.44605 -0.68156 2077 ft 255 kts 122°
2026-05-04 21:17 51.44078 -0.65467 1922 ft 255 kts 93°
2026-05-04 21:17 51.44387 -0.62725 1521 ft 244 kts 63°
2026-05-04 21:18 51.45404 -0.60850 1370 ft 211 kts 30°
2026-05-04 21:18 51.46725 -0.60219 1389 ft 195 kts 10°
2026-05-04 21:18 51.47808 -0.59147 1389 ft 180 kts 56°
2026-05-04 21:18 51.48056 -0.57274 1409 ft 171 kts 92°
2026-05-04 21:19 51.47866 -0.55434 1370 ft 160 kts 101°
2026-05-04 21:19 51.47757 -0.53691 1104 ft 152 kts 91°
2026-05-04 21:19 51.47741 -0.52024 835 ft 148 kts 91°
2026-05-04 21:19 51.47746 -0.50365 459 ft 149 kts 88°
2026-05-04 21:20 51.47757 -0.48724 180 ft 146 kts 88°
2026-05-04 21:20 51.47758 -0.47122 96 ft 134 kts 91°
2026-05-04 21:20 51.47759 -0.46122 93 ft 58 kts 89°
2026-05-04 21:20 51.47752 -0.45552 91 ft 25 kts 111°
2026-05-04 21:21 51.47641 -0.45469 89 ft 11 kts 178°
2026-05-04 21:21 51.47583 -0.45467 90 ft 8 kts 179°
2026-05-04 21:21 51.47531 -0.45483 92 ft 7 kts 209°
2026-05-04 21:21 51.47515 -0.45527 92 ft 0 kts 251°
2026-05-04 21:23 51.47511 -0.45548 93 ft 3 kts 256°
2026-05-04 21:23 51.47507 -0.45597 93 ft 6 kts 265°
2026-05-04 21:23 51.47507 -0.45673 92 ft 8 kts 271°
2026-05-04 21:23 51.47513 -0.45774 92 ft 10 kts 277°
2026-05-04 21:24 51.47517 -0.45898 90 ft 12 kts 270°
2026-05-04 21:24 51.47517 -0.46044 90 ft 14 kts 269°
2026-05-04 21:24 51.47516 -0.46208 89 ft 16 kts 270°
2026-05-04 21:24 51.47515 -0.46392 89 ft 17 kts 270°
2026-05-04 21:25 51.47514 -0.46581 92 ft 17 kts 269°
2026-05-04 21:25 51.47485 -0.46742 94 ft 14 kts 207°
2026-05-04 21:25 51.47389 -0.46733 90 ft 15 kts 171°
2026-05-04 21:25 51.47289 -0.46723 89 ft 14 kts 179°
2026-05-04 21:26 51.47185 -0.46724 89 ft 16 kts 181°
2026-05-04 21:26 51.47076 -0.46725 89 ft 13 kts 176°
2026-05-04 21:26 51.46992 -0.46660 94 ft 14 kts 145°
2026-05-04 21:26 51.46928 -0.46590 92 ft 0 kts 146°
2026-05-04 21:28 51.46922 -0.46584 92 ft 2 kts 146°
2026-05-04 21:28 51.46899 -0.46559 94 ft 5 kts 146°
2026-05-04 21:28 51.46860 -0.46517 93 ft 8 kts 146°
2026-05-04 21:28 51.46804 -0.46456 93 ft 11 kts 146°
2026-05-04 21:29 51.46725 -0.46423 90 ft 12 kts 177°
2026-05-04 21:29 51.46667 -0.46369 93 ft 9 kts 115°
2026-05-04 21:29 51.46658 -0.46247 93 ft 13 kts 92°
2026-05-04 21:29 51.46656 -0.46079 91 ft 16 kts 88°
2026-05-04 21:30 51.46641 -0.45956 90 ft 8 kts 128°
2026-05-04 21:30 51.46636 -0.45947 90 ft 0 kts 133°
2026-05-04 21:31 51.46625 -0.45931 85 ft 5 kts 136°
2026-05-04 21:32 51.46585 -0.45882 88 ft 10 kts 145°
2026-05-04 21:32 51.46522 -0.45812 89 ft 12 kts 145°
2026-05-04 21:32 51.46457 -0.45742 92 ft 11 kts 147°
2026-05-04 21:32 51.46387 -0.45667 92 ft 12 kts 147°
2026-05-04 21:33 51.46356 -0.45634 94 ft 0 kts 143°
2026-05-04 21:33 51.46354 -0.45631 94 ft 1 kts 143°
2026-05-04 21:33 51.46339 -0.45613 95 ft 4 kts 144°
2026-05-04 21:33 51.46308 -0.45578 94 ft 7 kts 145°
2026-05-04 21:34 51.46260 -0.45526 94 ft 10 kts 145°
2026-05-04 21:34 51.46196 -0.45456 93 ft 12 kts 146°
2026-05-04 21:34 51.46118 -0.45372 95 ft 14 kts 146°
2026-05-04 21:34 51.46026 -0.45326 92 ft 14 kts 177°
2026-05-04 21:35 51.45920 -0.45326 90 ft 16 kts 181°
2026-05-04 21:35 51.45800 -0.45328 91 ft 17 kts 176°
2026-05-04 21:35 51.45706 -0.45262 94 ft 13 kts 137°
2026-05-04 21:35 51.45671 -0.45137 95 ft 12 kts 94°
2026-05-04 21:36 51.45680 -0.45011 93 ft 10 kts 78°
2026-05-04 21:36 51.45700 -0.44978 94 ft 1 kts 352°
2026-05-04 21:36 51.45704 -0.44985 93 ft 1 kts 322°
2026-05-04 21:36 51.45718 -0.45002 91 ft 4 kts 324°
2026-05-04 21:37 51.45744 -0.45029 94 ft 4 kts 328°
2026-05-04 21:37 51.45754 -0.45038 94 ft 0 kts 332°